Weather History for Lincoln, NE

Change the Weather History Date:

Sunday, March 24, 2013

  Actual Average Record
Temperature  
Mean Temperature 27 °F 43 °F  
Max Temperature 30 °F 56 °F 83 °F (1967)
Min Temperature 24 °F 31 °F 7 °F (1965)
Degree Days  
Heating Degree Days 38 22  
Month to date heating degree days 770 630  
Since 1 July heating degree days 5398 5333  
Cooling Degree Days 0 0  
Month to date cooling degree days 0 0  
Year to date cooling degree days 0 0  
Moisture  
Dew Point 21 °F    
Average Humidity 75    
Maximum Humidity 92    
Minimum Humidity 58    
Precipitation  
Precipitation 0.03 in 0.07 in 1.64 in (1957)
Month to date precipitation 1.18 1.38  
Year to date precipitation 2.45 2.79  
Snow  
Snow 0.50 in 0.10 in - ()
Month to date snowfall 7.3 3.9  
Since 1 July snowfall 24.1 23.6  
Snow Depth 1.00 in    
Sea Level Pressure  
Sea Level Pressure 30.11 in    
Wind  
Wind Speed 18 mph (NNW)    
Max Wind Speed 26 mph    
Max Gust Speed 33 mph    
Visibility 5 miles    
Events Snow    
T = Trace of Precipitation, MM = Missing Value Source: NWS Daily Summary

Daily Weather History Graph

Daily Weather History Graph

Search for Another Location

Airport:

Trip Planner

Search our weather history database for the weather conditions in past years. The results will help you decide how hot, cold, wet, or windy it might be!

Date:

Astronomy

Mar. 24, 2013 Rise Set
Actual Time 7:23 AM CDT 7:43 PM CDT
Civil Twilight 6:55 AM CDT 8:11 PM CDT
Nautical Twilight 6:23 AM CDT 8:43 PM CDT
Astronomical Twilight 5:50 AM CDT 9:16 PM CDT
Moon 5:12 PM CDT (3/24) 5:35 AM CDT (3/24)
Length of Visible Light 13h 15m
Length of Day
12h 20m
Waxing Gibbous, 92% of the Moon is Illuminated
Mar 24
Waxing Gibbous
Mar 27
Full
Apr 2
Last Quarter
Apr 10
New
Apr 18
First Quarter

Hourly Weather History & Observations

Time (CDT) Temp. Windchill Dew Point Humidity Pressure Visibility Wind Dir Wind Speed Gust Speed Precip Events Conditions
12:11 AM 30.2 °F 19.3 °F 26.6 °F 86% 30.09 in 4.0 mi NNE 15.0 mph - 0.00 in Snow Light Snow
12:32 AM 28.4 °F 16.6 °F 26.6 °F 93% 30.08 in 2.5 mi NNE 16.1 mph 25.3 mph 0.00 in Snow Light Snow
12:54 AM 28.9 °F 17.7 °F 26.1 °F 89% 30.11 in 1.0 mi NNE 15.0 mph - 0.00 in Snow Light Snow
12:57 AM 28.4 °F 17.0 °F 26.6 °F 93% 30.08 in 0.8 mi NNE 15.0 mph - 0.01 in Snow Light Snow
1:16 AM 28.4 °F 16.6 °F 26.6 °F 93% 30.07 in 1.0 mi North 16.1 mph - 0.03 in Snow Light Snow
1:31 AM 28.4 °F 15.1 °F 26.6 °F 93% 30.07 in 1.5 mi North 20.7 mph 28.8 mph 0.03 in Snow Light Snow
1:50 AM 28.4 °F 14.7 °F 24.8 °F 86% 30.07 in 2.5 mi North 21.9 mph 28.8 mph 0.03 in Snow Light Snow
1:54 AM 28.0 °F 13.6 °F 25.0 °F 88% 30.11 in 2.5 mi North 24.2 mph 28.8 mph 0.03 in Snow Light Snow
2:30 AM 28.4 °F 16.6 °F 24.8 °F 86% 30.09 in 1.5 mi North 16.1 mph - 0.00 in Snow Light Snow
2:39 AM 28.4 °F 15.1 °F 24.8 °F 86% 30.09 in 1.5 mi North 20.7 mph 26.5 mph 0.00 in Snow Light Snow
2:46 AM 26.6 °F 12.4 °F 24.8 °F 93% 30.08 in 2.0 mi North 21.9 mph - 0.00 in Snow Light Snow
2:54 AM 27.0 °F 14.7 °F 24.1 °F 89% 30.13 in 2.0 mi North 16.1 mph 27.6 mph 0.00 in Snow Light Snow
3:20 AM 26.6 °F 12.7 °F 24.8 °F 93% 30.08 in 2.0 mi North 20.7 mph - 0.00 in Snow Light Snow
3:27 AM 26.6 °F 12.7 °F 24.8 °F 93% 30.07 in 1.2 mi North 20.7 mph 25.3 mph 0.00 in Snow Light Snow
3:54 AM 26.1 °F 12.7 °F 23.0 °F 88% 30.11 in 1.8 mi North 18.4 mph - 0.00 in Snow Light Snow
4:06 AM 26.6 °F 13.1 °F 23.0 °F 86% 30.07 in 2.0 mi North 19.6 mph - 0.00 in Snow Light Snow
4:11 AM 26.6 °F 14.3 °F 23.0 °F 86% 30.07 in 1.8 mi NNW 16.1 mph - 0.00 in Snow Light Snow
4:28 AM 26.6 °F 12.0 °F 21.2 °F 80% 30.07 in 2.0 mi North 23.0 mph - 0.01 in Snow Light Snow
4:50 AM 24.8 °F 11.9 °F 21.2 °F 86% 30.08 in 2.0 mi NNW 16.1 mph - 0.01 in Snow Light Snow
4:54 AM 25.0 °F 11.3 °F 21.9 °F 88% 30.12 in 2.5 mi NNW 18.4 mph 24.2 mph 0.01 in Snow Light Snow
5:17 AM 24.8 °F 11.1 °F 21.2 °F 86% 30.07 in 3.0 mi NNW 18.4 mph - 0.00 in Snow Light Snow
5:54 AM 25.0 °F 11.7 °F 21.0 °F 85% 30.11 in 3.0 mi NNW 17.3 mph - 0.00 in Snow Light Snow
6:23 AM 24.8 °F 10.7 °F 19.4 °F 80% 30.06 in 7.0 mi NNW 19.6 mph 25.3 mph 0.00 in   Overcast
6:34 AM 24.8 °F 10.7 °F 21.2 °F 86% 30.06 in 7.0 mi NNW 19.6 mph 25.3 mph 0.00 in   Overcast
6:54 AM 25.0 °F 11.3 °F 19.9 °F 81% 30.11 in 6.0 mi NNW 18.4 mph 28.8 mph 0.00 in   Haze
7:10 AM 24.8 °F 10.3 °F 19.4 °F 80% 30.07 in 7.0 mi NNW 20.7 mph - N/A   Overcast
7:54 AM 25.0 °F 12.2 °F 19.0 °F 78% 30.12 in 6.0 mi NNW 16.1 mph 26.5 mph N/A   Haze
8:54 AM 24.1 °F 10.6 °F 19.0 °F 81% 30.13 in 7.0 mi NNW 17.3 mph 24.2 mph N/A   Overcast
9:54 AM 24.1 °F 9.0 °F 16.0 °F 71% 30.13 in 7.0 mi NNW 21.9 mph 28.8 mph N/A   Overcast
10:54 AM 25.0 °F 11.3 °F 15.1 °F 66% 30.13 in 9.0 mi NNW 18.4 mph - N/A   Overcast
11:14 AM 24.8 °F 10.3 °F 14.0 °F 64% 30.09 in 10.0 mi NNW 20.7 mph - N/A   Partly Cloudy
11:54 AM 26.1 °F 12.3 °F 15.1 °F 63% 30.13 in 10.0 mi NNW 19.6 mph - N/A   Clear
12:54 PM 28.0 °F 15.7 °F 16.0 °F 61% 30.12 in 10.0 mi NNW 17.3 mph - N/A   Clear
1:54 PM 30.0 °F 18.3 °F 17.1 °F 59% 30.12 in 10.0 mi NNW 17.3 mph - N/A   Overcast
2:54 PM 28.9 °F 15.4 °F 18.0 °F 64% 30.11 in 8.0 mi NW 21.9 mph 27.6 mph N/A   Overcast
3:54 PM 30.0 °F 17.2 °F 17.1 °F 59% 30.11 in 10.0 mi NNW 20.7 mph 27.6 mph N/A   Overcast
4:54 PM 28.9 °F 14.8 °F 17.1 °F 61% 30.11 in 10.0 mi NNW 24.2 mph 29.9 mph N/A   Overcast
5:54 PM 28.9 °F 14.3 °F 15.1 °F 56% 30.12 in 10.0 mi NW 26.5 mph 31.1 mph N/A   Overcast
6:54 PM 28.0 °F 14.9 °F 17.1 °F 63% 30.14 in 9.0 mi NNW 19.6 mph - N/A   Overcast
7:54 PM 26.1 °F 14.5 °F 16.0 °F 66% 30.16 in 8.0 mi NNW 13.8 mph - N/A   Overcast
8:54 PM 26.1 °F 14.0 °F 15.1 °F 63% 30.16 in 10.0 mi NNW 15.0 mph 24.2 mph N/A   Overcast
9:54 PM 26.1 °F 14.5 °F 18.0 °F 71% 30.17 in 8.0 mi NW 13.8 mph - N/A   Overcast
10:54 PM 25.0 °F 13.1 °F 18.0 °F 75% 30.17 in 9.0 mi NW 13.8 mph 20.7 mph N/A   Overcast
11:28 PM 24.8 °F 12.9 °F 17.6 °F 74% 30.12 in 10.0 mi NW 13.8 mph 19.6 mph N/A   Mostly Cloudy
11:54 PM 25.0 °F 13.6 °F 18.0 °F 75% 30.17 in 9.0 mi NW 12.7 mph - N/A   Mostly Cloudy